Content
SEND FEEDBACK

Daily
Averages
Monthly
Summary
United States of America

ST. LOUIS - SAINT LOUIS UNIVERSITY, MISSOURI


Home > North America > United States > Missouri
Elevation: 580 feet     Latitude: 38 38N     Longitude: 090 14W

WEATHER
 
SELECT A DAY
Number of Records: 186,410;   Date Range: 1/1/95 - 9/16/14
 
SHARE

PRINT THIS DATA

[ ← Previous Day ]
WEATHER ALMANAC - JANUARY 12, 2013
[ Next Day → ]
[ °C ]   °F
Weather ElementAverageHighLow
Temperature47.1 °F57.9 °F (10:53 am)32 °F (11:53 pm)
Dewpoint40.6 °F50 °F (9:53 am)28.9 °F (10:53 pm)
Humidity79 %93 % (8:38 pm)57 % (12:53 pm)
Barometer29.89 in29.96 in (10:48 am)29.84 in (5:18 pm)
Wind Speed9.9 mph21.9 mph (9:53 pm)
Wind Gust27.6 mph (9:53 pm)
Weather ElementAverage
Visibility7.8 mi
Wind DirectionSW (228.1 °)

Weather ElementTotal
Precipitation2.05 in
Heating Degree Days20.1 (Base 65)
Averaged from 32 records on January 12, 2013
WEATHER CONDITIONS BREAKOUT
WIND DIRECTION BREAKOUT
WEATHER BY HOUR - JANUARY 12, 2013
[ °C ]   °F
Local TimeTemperatureDewpointHumidityBarometerVisibilityWind DirectionWind SpeedGust SpeedPrecipitationEventsConditions
1:53 AM57.0 °F48.0 °F72 %29.85 in10.0 miSSW (210°)3.5 mph
2:53 AM55.0 °F46.9 °F74 %29.86 in10.0 miSouth (170°)3.5 mph
3:53 AM53.1 °F46.9 °F80 %29.86 in10.0 miSSE (160°)4.6 mph
4:53 AM53.1 °F46.9 °F80 %29.86 in10.0 miCalm
5:53 AM55.0 °F48.0 °F77 %29.87 in10.0 miSW (230°)3.5 mph
6:53 AM53.1 °F46.9 °F80 %29.90 in10.0 miCalm
7:53 AM48.9 °F46.0 °F90 %29.93 in10.0 miCalm
8:53 AM51.1 °F48.0 °F89 %29.93 in10.0 miCalmClear
9:53 AM57.0 °F50.0 °F77 %29.95 in10.0 miCalmClear
10:48 AM57.2 °F48.2 °F72 %29.96 in10.0 miNNW (340°)6.9 mphMostly Cloudy
10:53 AM57.9 °F46.9 °F67 %29.95 in10.0 miNorth (10°)5.8 mphMostly Cloudy
11:53 AM57.9 °F46.9 °F67 %29.92 in10.0 miNorth (10°)10.4 mphOvercast
12:19 PM57.2 °F46.4 °F67 %29.92 in10.0 miNorth (350°)10.4 mphOvercast
12:53 PM57.0 °F42.1 °F57 %29.91 in10.0 miNorth (10°)10.4 mphMostly Cloudy
1:53 PM53.1 °F39.0 °F59 %29.91 in9.0 miNNW (330°)6.9 mph0.00 inRainLight Rain
2:37 PM48.2 °F41.0 °F76 %29.90 in8.0 miNorth (350°)11.5 mph0.04 inRainLight Rain
2:53 PM48.0 °F39.9 °F74 %29.91 in7.0 miNorth (360°)13.8 mph0.05 inRainLight Rain
3:17 PM46.4 °F37.4 °F71 %29.91 in10.0 miNorth (350°)11.5 mph0.01 inRainLight Rain
3:53 PM45.0 °F36.0 °F71 %29.89 in10.0 miNorth (350°)10.4 mph0.01 inRainLight Rain
4:53 PM42.1 °F36.0 °F79 %29.88 in6.0 miNorth (350°)13.8 mph0.09 inRainRain
5:18 PM42.8 °F37.4 °F81 %29.84 in4.0 miNorth (10°)13.8 mph0.09 inRainRain
5:44 PM41.0 °F37.4 °F87 %29.86 in2.5 miNNW (330°)11.5 mph0.23 inRainHeavy Rain
5:53 PM41.0 °F37.9 °F89 %29.87 in2.5 miNNW (340°)12.7 mph0.32 inRainHeavy Rain
6:09 PM41.0 °F37.4 °F87 %29.85 in4.0 miNNW (330°)8.1 mph0.06 inRainRain
6:53 PM39.9 °F37.0 °F89 %29.86 in8.0 miNNW (340°)17.3 mph0.16 inRainRain
7:22 PM39.2 °F35.6 °F87 %29.86 in4.0 miNNW (340°)18.4 mph23.0 mph0.10 inRainRain
7:53 PM37.9 °F35.1 °F89 %29.89 in5.0 miNNW (340°)17.3 mph21.9 mph0.23 inRainRain
8:38 PM35.6 °F33.8 °F93 %29.88 in5.0 miNNW (340°)20.7 mph25.3 mph0.23 inRainRain
8:53 PM35.1 °F32.0 °F89 %29.88 in3.0 miNorth (350°)17.3 mph25.3 mph0.30 inRainRain
9:53 PM34.0 °F30.0 °F85 %29.89 in3.0 miNNW (340°)21.9 mph27.6 mph0.12 inRainRain
10:53 PM33.1 °F28.9 °F85 %29.94 in10.0 miNW (320°)18.4 mph0.01 inRainLight Rain
11:53 PM32.0 °F28.9 °F88 %29.94 in10.0 miNNW (340°)12.7 mph0.00 inOvercast
Hourly data recorded from KCPS, located miles away from St. Louis - Saint Louis University, Missouri







STORIES FROM OUR PARTNERS